Weather History for New Richmond, WI

Change the Weather History Date:

Saturday, October 6, 2012

  Actual Average (KMSP) Record (KMSP)
Temperature  
Mean Temperature 36 °F 53 °F  
Max Temperature 42 °F 63 °F 87 °F (2007)
Min Temperature 30 °F 43 °F 25 °F (1873)
Degree Days  
Heating Degree Days 29 12  
Month to date heating degree days 68  
Since 1 July heating degree days 241  
Cooling Degree Days 0 0  
Month to date cooling degree days 3  
Year to date cooling degree days 750  
Moisture  
Dew Point 26 °F    
Average Humidity 66    
Maximum Humidity 100    
Minimum Humidity 42    
Precipitation  
Precipitation 0.00 in 0.09 in 1.69 in (1941)
Month to date precipitation 0.58  
Year to date precipitation 25.83  
Snow  
Snow 0.00 in 0.00 in T in (2005)
Month to date snowfall 0.0  
Since 1 July snowfall T  
Since 1 September snowfall T  
Snow Depth -    
Sea Level Pressure  
Sea Level Pressure 30.19 in    
Wind  
Wind Speed 11 mph (NW)    
Max Wind Speed 16 mph    
Max Gust Speed 22 mph    
Visibility 10 miles    
Events      
T = Trace of Precipitation, MM = Missing Value Source: NWS Daily Summary

Daily Weather History Graph

Daily Weather History Graph

Search for Another Location

Airport:

Trip Planner

Search our weather history database for the weather conditions in past years. The results will help you decide how hot, cold, wet, or windy it might be!

Date:

Astronomy

Oct. 06, 2012 Rise Set
Actual Time 7:15 AM CDT 6:40 PM CDT
Civil Twilight 6:45 AM CDT 7:09 PM CDT
Nautical Twilight 6:11 AM CDT 7:43 PM CDT
Astronomical Twilight 5:37 AM CDT 8:17 PM CDT
Moon 10:44 PM CDT (10/6) 1:22 PM CDT (10/6)
Length of Visible Light 12h 23m
Length of Day
11h 25m
Waning Gibbous, 65% of the Moon is Illuminated
Oct 6
Waning Gibbous
Oct 8
Last Quarter
Oct 15
New
Oct 21
First Quarter
Oct 29
Full

Hourly Weather History & Observations

Time (CDT) Temp. Windchill Dew Point Humidity Pressure Visibility Wind Dir Wind Speed Gust Speed Precip Events Conditions
12:15 AM 35.6 °F 26.2 °F 26.6 °F 70% 30.10 in 10.0 mi WNW 15.0 mph 19.6 mph N/A   Overcast
12:35 AM 35.6 °F 26.2 °F 26.6 °F 70% 30.10 in 10.0 mi WNW 15.0 mph 19.6 mph N/A   Overcast
12:55 AM 35.6 °F 26.6 °F 28.4 °F 75% 30.10 in 10.0 mi WNW 13.8 mph 18.4 mph N/A   Overcast
1:15 AM 35.6 °F 28.0 °F 28.4 °F 75% 30.11 in 10.0 mi WNW 10.4 mph - N/A   Overcast
1:35 AM 35.6 °F 25.9 °F 28.4 °F 75% 30.11 in 10.0 mi WNW 16.1 mph - N/A   Overcast
1:55 AM 35.6 °F 28.6 °F 30.2 °F 81% 30.11 in 10.0 mi WNW 9.2 mph - N/A   Overcast
2:15 AM 35.6 °F 26.6 °F 28.4 °F 75% 30.11 in 10.0 mi WNW 13.8 mph 20.7 mph N/A   Overcast
2:35 AM 35.6 °F 26.6 °F 28.4 °F 75% 30.11 in 10.0 mi WNW 13.8 mph 18.4 mph N/A   Overcast
2:55 AM 35.6 °F 26.6 °F 30.2 °F 81% 30.11 in 10.0 mi WNW 13.8 mph 18.4 mph N/A   Overcast
3:15 AM 35.6 °F 27.5 °F 30.2 °F 81% 30.11 in 10.0 mi WNW 11.5 mph - N/A   Overcast
3:35 AM 35.6 °F 27.5 °F 30.2 °F 81% 30.11 in 10.0 mi NW 11.5 mph - N/A   Overcast
3:55 AM 35.6 °F 28.0 °F 30.2 °F 81% 30.12 in 10.0 mi NW 10.4 mph - N/A   Overcast
4:35 AM 35.6 °F 26.2 °F 30.2 °F 81% 30.13 in 10.0 mi NW 15.0 mph 18.4 mph N/A   Overcast
4:55 AM 35.6 °F 28.0 °F 30.2 °F 81% 30.13 in 10.0 mi NNW 10.4 mph - N/A   Overcast
5:15 AM 35.6 °F 26.6 °F 30.2 °F 81% 30.14 in 10.0 mi NNW 13.8 mph 20.7 mph N/A   Overcast
5:35 AM 33.8 °F 23.5 °F 30.2 °F 87% 30.14 in 10.0 mi North 16.1 mph 21.9 mph N/A   Overcast
5:55 AM 33.8 °F 25.8 °F 28.4 °F 81% 30.15 in 10.0 mi North 10.4 mph - N/A   Scattered Clouds
6:15 AM 32.0 °F 24.8 °F 30.2 °F 93% 30.16 in 10.0 mi NW 8.1 mph - N/A   Scattered Clouds
6:35 AM 32.0 °F 24.8 °F 28.4 °F 87% 30.17 in 10.0 mi NW 8.1 mph - N/A   Scattered Clouds
6:55 AM 32.0 °F 25.6 °F 28.4 °F 87% 30.17 in 10.0 mi WNW 6.9 mph - N/A   Scattered Clouds
7:15 AM 30.2 °F 24.3 °F 30.2 °F 100% 30.18 in 10.0 mi NW 5.8 mph - N/A   Scattered Clouds
7:35 AM 32.0 °F 26.4 °F 30.2 °F 93% 30.19 in 10.0 mi NW 5.8 mph - N/A   Mostly Cloudy
7:55 AM 32.0 °F 24.8 °F 30.2 °F 93% 30.19 in 10.0 mi NW 8.1 mph - N/A   Overcast
8:15 AM 32.0 °F 24.8 °F 30.2 °F 93% 30.20 in 10.0 mi NW 8.1 mph - N/A   Mostly Cloudy
8:35 AM 32.0 °F 25.6 °F 30.2 °F 93% 30.21 in 10.0 mi NW 6.9 mph - N/A   Mostly Cloudy
8:55 AM 33.8 °F 26.4 °F 30.2 °F 87% 30.21 in 10.0 mi NNW 9.2 mph - N/A   Scattered Clouds
9:15 AM 35.6 °F 27.5 °F 30.2 °F 81% 30.22 in 10.0 mi North 11.5 mph - N/A   Scattered Clouds
9:35 AM 35.6 °F 28.0 °F 30.2 °F 81% 30.23 in 10.0 mi NNW 10.4 mph - N/A   Mostly Cloudy
9:55 AM 37.4 °F 29.3 °F 28.4 °F 70% 30.23 in 10.0 mi North 12.7 mph 19.6 mph N/A   Mostly Cloudy
10:15 AM 37.4 °F 29.3 °F 28.4 °F 70% 30.23 in 10.0 mi North 12.7 mph - N/A   Mostly Cloudy
10:35 AM 35.6 °F 27.5 °F 26.6 °F 70% 30.24 in 10.0 mi NNW 11.5 mph 18.4 mph N/A   Mostly Cloudy
10:55 AM 37.4 °F 29.8 °F 26.6 °F 65% 30.24 in 10.0 mi North 11.5 mph 16.1 mph N/A   Scattered Clouds
11:15 AM 39.2 °F 32.5 °F 26.6 °F 61% 30.24 in 10.0 mi North 10.4 mph 18.4 mph N/A   Mostly Cloudy
11:35 AM 37.4 °F 29.8 °F 26.6 °F 65% 30.24 in 10.0 mi North 11.5 mph - N/A   Overcast
11:55 AM 37.4 °F 29.8 °F 24.8 °F 60% 30.24 in 10.0 mi NNW 11.5 mph - N/A   Overcast
12:15 PM 39.2 °F 33.0 °F 24.8 °F 56% 30.25 in 10.0 mi North 9.2 mph - N/A   Overcast
12:35 PM 39.2 °F 33.0 °F 24.8 °F 56% 30.25 in 10.0 mi NW 9.2 mph - N/A   Overcast
12:55 PM 41.0 °F 33.9 °F 24.8 °F 53% 30.24 in 10.0 mi NNW 12.7 mph 18.4 mph N/A   Overcast
1:15 PM 41.0 °F 34.3 °F 24.8 °F 53% 30.24 in 10.0 mi NNW 11.5 mph 18.4 mph N/A   Overcast
1:35 PM 42.8 °F 36.6 °F 23.0 °F 46% 30.23 in 10.0 mi NNW 11.5 mph 18.4 mph N/A   Overcast
1:55 PM 41.0 °F 35.8 °F 23.0 °F 49% 30.23 in 10.0 mi North 8.1 mph 16.1 mph N/A   Overcast
2:15 PM 41.0 °F 36.4 °F 21.2 °F 45% 30.23 in 10.0 mi NNW 6.9 mph - N/A   Overcast
2:35 PM 41.0 °F 34.7 °F 21.2 °F 45% 30.23 in 10.0 mi NW 10.4 mph - N/A   Overcast
2:55 PM 41.0 °F 35.2 °F 23.0 °F 49% 30.22 in 10.0 mi NW 9.2 mph - N/A   Overcast
3:15 PM 41.0 °F 36.4 °F 21.2 °F 45% 30.22 in 10.0 mi NW 6.9 mph - N/A   Mostly Cloudy
3:35 PM 41.0 °F 34.3 °F 21.2 °F 45% 30.22 in 10.0 mi NW 11.5 mph - N/A   Overcast
3:55 PM 41.0 °F 34.3 °F 21.2 °F 45% 30.21 in 10.0 mi NNW 11.5 mph - N/A   Overcast
4:15 PM 41.0 °F 35.8 °F 21.2 °F 45% 30.21 in 10.0 mi NW 8.1 mph - N/A   Overcast
4:35 PM 41.0 °F 35.2 °F 21.2 °F 45% 30.21 in 10.0 mi NW 9.2 mph - N/A   Overcast
4:55 PM 41.0 °F 34.7 °F 21.2 °F 45% 30.21 in 10.0 mi NNW 10.4 mph - N/A   Overcast
5:15 PM 41.0 °F 34.7 °F 21.2 °F 45% 30.21 in 10.0 mi North 10.4 mph - N/A   Overcast
5:35 PM 41.0 °F 35.8 °F 21.2 °F 45% 30.21 in 10.0 mi North 8.1 mph - N/A   Overcast
6:15 PM 41.0 °F 37.1 °F 19.4 °F 42% 30.21 in 10.0 mi NW 5.8 mph - N/A   Overcast
6:35 PM 41.0 °F 38.0 °F 19.4 °F 42% 30.21 in 10.0 mi North 4.6 mph - N/A   Overcast
6:55 PM 39.2 °F 37.0 °F 21.2 °F 49% 30.22 in 10.0 mi North 3.5 mph - N/A   Overcast
7:15 PM 37.4 °F 34.9 °F 21.2 °F 52% 30.22 in 10.0 mi North 3.5 mph - N/A   Overcast
7:35 PM 37.4 °F - 21.2 °F 52% 30.22 in 10.0 mi Calm Calm - N/A   Overcast
7:55 PM 39.2 °F - 21.2 °F 49% 30.22 in 10.0 mi Calm Calm - N/A   Overcast
8:15 PM 37.4 °F 34.9 °F 21.2 °F 52% 30.23 in 10.0 mi WNW 3.5 mph - N/A   Overcast
8:35 PM 35.6 °F 32.8 °F 23.0 °F 60% 30.23 in 10.0 mi West 3.5 mph - N/A   Overcast
8:55 PM 35.6 °F 30.7 °F 24.8 °F 65% 30.23 in 10.0 mi West 5.8 mph - N/A   Overcast
9:15 PM 35.6 °F 30.7 °F 24.8 °F 65% 30.23 in 10.0 mi West 5.8 mph - N/A   Overcast
9:35 PM 35.6 °F 31.7 °F 24.8 °F 65% 30.22 in 10.0 mi West 4.6 mph - N/A   Overcast
9:55 PM 35.6 °F 30.7 °F 26.6 °F 70% 30.22 in 10.0 mi West 5.8 mph - N/A   Overcast
10:15 PM 35.6 °F 31.7 °F 24.8 °F 65% 30.22 in 10.0 mi West 4.6 mph - N/A   Overcast
10:55 PM 35.6 °F 32.8 °F 24.8 °F 65% 30.22 in 10.0 mi WSW 3.5 mph - N/A   Overcast
11:15 PM 35.6 °F 30.7 °F 24.8 °F 65% 30.22 in 10.0 mi West 5.8 mph - N/A   Overcast
11:35 PM 37.4 °F 33.8 °F 23.0 °F 56% 30.22 in 10.0 mi WSW 4.6 mph - N/A   Overcast
11:55 PM 35.6 °F 31.7 °F 24.8 °F 65% 30.21 in 10.0 mi WSW 4.6 mph - N/A   Overcast